NOO93EV EGPK-LEBL

Flight info

Callsign NOO93EV
Flight time 2h 14m
Altitude 37000
Route SUDBY Z249 OSMEG T256 DCS DCT AKOMU DCT VAMEB UL612 HON DCT SITET UN859 SOPIL DCT BALAN DCT EVPOK DCT NARAK DCT GAI DCT LOMRA DCT ROCAN DCT PUMAL
Aircraft B77W/H-SDE1E2E3FGHIJ2J3J4J5M1RWXY/LB1D1

Departure

Time 2026-04-28 20:37
Airport Glasgow Prestwick Airport (EGPK)

Arrival

Time 2026-04-28 22:52
Airport Josep Tarradellas Barcelona-El Prat Airport (LEBL)
Time Latitude Longitude Altitude Speed Heading
2026-04-28 19:16 55.51209 -4.61091 46 ft 0 kts 223°
2026-04-28 20:23 55.51216 -4.61078 45 ft 2 kts 223°
2026-04-28 20:24 55.51227 -4.61060 45 ft 2 kts 225°
2026-04-28 20:24 55.51236 -4.61040 46 ft 2 kts 239°
2026-04-28 20:24 55.51243 -4.61016 46 ft 2 kts 251°
2026-04-28 20:24 55.51246 -4.60991 46 ft 2 kts 262°
2026-04-28 20:25 55.51247 -4.60966 46 ft 2 kts 272°
2026-04-28 20:25 55.51246 -4.60939 46 ft 2 kts 284°
2026-04-28 20:25 55.51241 -4.60915 46 ft 2 kts 295°
2026-04-28 20:25 55.51237 -4.60901 46 ft 1 kts 301°
2026-04-28 20:26 55.51236 -4.60899 46 ft 0 kts 301°
2026-04-28 20:26 55.51236 -4.60900 45 ft 0 kts 301°
2026-04-28 20:31 55.51251 -4.60942 46 ft 7 kts 301°
2026-04-28 20:31 55.51277 -4.61018 46 ft 6 kts 301°
2026-04-28 20:31 55.51306 -4.61101 47 ft 12 kts 301°
2026-04-28 20:31 55.51365 -4.61269 47 ft 15 kts 301°
2026-04-28 20:32 55.51420 -4.61419 47 ft 14 kts 313°
2026-04-28 20:32 55.51490 -4.61504 47 ft 8 kts 337°
2026-04-28 20:32 55.51507 -4.61515 47 ft 0 kts 343°
2026-04-28 20:35 55.51517 -4.61521 47 ft 5 kts 343°
2026-04-28 20:36 55.51573 -4.61516 47 ft 8 kts 24°
2026-04-28 20:36 55.51615 -4.61457 47 ft 4 kts 52°
2026-04-28 20:36 55.51617 -4.61420 47 ft 2 kts 115°
2026-04-28 20:36 55.51614 -4.61411 47 ft 0 kts 123°
2026-04-28 20:37 55.51569 -4.61284 47 ft 43 kts 120°
2026-04-28 20:37 55.51283 -4.60454 46 ft 113 kts 120°
2026-04-28 20:37 55.50757 -4.58939 91 ft 167 kts 120°
2026-04-28 20:37 55.50137 -4.57202 689 ft 172 kts 117°
2026-04-28 20:38 55.49529 -4.55381 1575 ft 175 kts 116°
2026-04-28 20:38 55.48936 -4.53642 2397 ft 169 kts 117°
2026-04-28 20:38 55.48295 -4.51809 2866 ft 179 kts 117°
2026-04-28 20:38 55.47642 -4.49936 3409 ft 186 kts 117°
2026-04-28 20:39 55.46936 -4.47897 3816 ft 202 kts 117°
2026-04-28 20:39 55.46180 -4.45728 4240 ft 219 kts 120°
2026-04-28 20:39 55.45096 -4.43687 4657 ft 240 kts 140°
2026-04-28 20:39 55.43648 -4.42061 5146 ft 256 kts 144°
2026-04-28 20:40 55.42109 -4.40420 5816 ft 263 kts 144°
2026-04-28 20:40 55.40525 -4.38709 5988 ft 265 kts 143°
2026-04-28 20:40 55.38977 -4.37028 6009 ft 264 kts 144°
2026-04-28 20:40 55.37417 -4.35330 6007 ft 264 kts 143°
2026-04-28 20:41 55.35854 -4.33629 6017 ft 264 kts 144°
2026-04-28 20:41 55.34290 -4.31928 6016 ft 265 kts 144°
2026-04-28 20:41 55.32731 -4.30236 6019 ft 264 kts 144°
2026-04-28 20:41 55.31169 -4.28542 6010 ft 264 kts 144°
2026-04-28 20:42 55.29617 -4.26860 6002 ft 264 kts 144°
2026-04-28 20:42 55.28004 -4.25111 6371 ft 275 kts 144°
2026-04-28 20:42 55.26443 -4.23345 7387 ft 268 kts 142°
2026-04-28 20:42 55.24901 -4.21534 8151 ft 270 kts 141°
2026-04-28 20:43 55.23330 -4.19686 8878 ft 274 kts 141°
2026-04-28 20:43 55.21746 -4.17823 9600 ft 277 kts 141°
2026-04-28 20:43 55.20158 -4.15959 10330 ft 280 kts 141°
2026-04-28 20:43 55.18518 -4.14034 10869 ft 290 kts 141°
2026-04-28 20:44 55.16805 -4.12020 11240 ft 306 kts 141°
2026-04-28 20:44 55.15001 -4.09911 11647 ft 322 kts 141°
2026-04-28 20:44 55.13071 -4.07697 12083 ft 338 kts 141°
2026-04-28 20:44 55.11080 -4.05375 12539 ft 354 kts 141°
2026-04-28 20:45 55.08996 -4.02945 13035 ft 369 kts 141°
2026-04-28 20:45 55.06859 -4.00464 13701 ft 379 kts 141°
2026-04-28 20:45 55.04663 -3.97923 14570 ft 385 kts 141°
2026-04-28 20:45 55.02421 -3.95333 15519 ft 390 kts 141°
2026-04-28 20:46 55.00147 -3.92709 16463 ft 396 kts 141°
2026-04-28 20:46 54.97848 -3.90060 17373 ft 402 kts 141°
2026-04-28 20:46 54.95524 -3.87386 18252 ft 409 kts 141°
2026-04-28 20:46 54.93141 -3.84648 19086 ft 415 kts 141°
2026-04-28 20:47 54.90745 -3.81900 19959 ft 420 kts 141°
2026-04-28 20:47 54.88291 -3.79090 20776 ft 426 kts 141°
2026-04-28 20:47 54.85826 -3.76270 21597 ft 431 kts 141°
2026-04-28 20:47 54.83316 -3.73403 22393 ft 436 kts 141°
2026-04-28 20:48 54.80770 -3.70500 23138 ft 442 kts 141°
2026-04-28 20:48 54.78220 -3.67597 23859 ft 447 kts 141°
2026-04-28 20:48 54.75628 -3.64650 24563 ft 452 kts 141°
2026-04-28 20:48 54.72981 -3.61647 25311 ft 457 kts 141°
2026-04-28 20:49 54.70340 -3.58654 26040 ft 461 kts 141°
2026-04-28 20:49 54.67625 -3.55583 26700 ft 467 kts 141°
2026-04-28 20:49 54.64919 -3.52525 27375 ft 472 kts 141°
2026-04-28 20:49 54.62146 -3.49399 28028 ft 477 kts 140°
2026-04-28 20:50 54.59364 -3.46266 28677 ft 482 kts 140°
2026-04-28 20:50 54.56536 -3.43088 29372 ft 486 kts 140°
2026-04-28 20:50 54.53715 -3.39923 30087 ft 489 kts 140°
2026-04-28 20:50 54.50888 -3.36759 30904 ft 489 kts 140°
2026-04-28 20:51 54.48000 -3.33530 31394 ft 491 kts 141°
2026-04-28 20:51 54.42317 -3.27197 31441 ft 484 kts 141°
2026-04-28 20:52 54.36652 -3.20900 31440 ft 483 kts 141°
2026-04-28 20:52 54.31001 -3.14635 31472 ft 492 kts 141°
2026-04-28 20:52 54.28158 -3.11490 32060 ft 494 kts 141°
2026-04-28 20:53 54.22514 -3.05280 34195 ft 476 kts 140°
2026-04-28 20:53 54.19744 -3.02236 34936 ft 472 kts 140°
2026-04-28 20:53 54.17006 -2.99227 35363 ft 473 kts 140°
2026-04-28 20:54 54.14209 -2.96155 35730 ft 475 kts 140°
2026-04-28 20:54 54.11452 -2.93125 36215 ft 474 kts 140°
2026-04-28 20:54 54.08693 -2.90098 36841 ft 470 kts 140°
2026-04-28 20:54 54.05941 -2.87084 37414 ft 469 kts 140°
2026-04-28 20:55 54.00376 -2.81141 37431 ft 475 kts 146°
2026-04-28 20:55 53.94349 -2.76569 37424 ft 480 kts 150°
2026-04-28 20:56 53.88227 -2.72156 37410 ft 480 kts 150°
2026-04-28 20:56 53.82166 -2.67801 37417 ft 477 kts 150°
2026-04-28 20:57 53.75998 -2.63379 37412 ft 479 kts 150°
2026-04-28 20:57 53.69886 -2.59011 37414 ft 476 kts 150°
2026-04-28 20:58 53.63792 -2.54666 37413 ft 479 kts 150°
2026-04-28 20:58 53.57707 -2.50345 37419 ft 474 kts 150°
2026-04-28 20:59 53.51582 -2.46003 37418 ft 478 kts 150°
2026-04-28 20:59 53.45524 -2.41727 37424 ft 474 kts 150°
2026-04-28 21:00 53.39442 -2.37443 37416 ft 475 kts 149°
2026-04-28 21:00 53.33365 -2.33178 37419 ft 476 kts 150°
2026-04-28 21:01 53.27250 -2.28899 37420 ft 474 kts 150°
2026-04-28 21:01 53.21170 -2.24657 37419 ft 476 kts 150°
2026-04-28 21:02 53.15082 -2.20425 37405 ft 473 kts 150°
2026-04-28 21:02 53.09037 -2.16235 37399 ft 473 kts 150°
2026-04-28 21:03 53.02934 -2.12017 37397 ft 472 kts 150°
2026-04-28 21:03 52.96860 -2.07832 37406 ft 472 kts 150°
2026-04-28 21:04 52.90850 -2.03704 37379 ft 472 kts 150°
2026-04-28 21:04 52.84784 -1.99549 37395 ft 472 kts 150°
2026-04-28 21:05 52.78719 -1.95408 37369 ft 474 kts 151°
2026-04-28 21:05 52.72649 -1.91278 37352 ft 470 kts 150°
2026-04-28 21:06 52.66624 -1.87189 37375 ft 471 kts 151°
2026-04-28 21:06 52.60539 -1.83071 37352 ft 472 kts 151°
2026-04-28 21:07 52.54481 -1.78986 37350 ft 471 kts 150°
2026-04-28 21:07 52.48397 -1.74893 37329 ft 472 kts 150°
2026-04-28 21:08 52.42359 -1.70845 37348 ft 471 kts 150°
2026-04-28 21:08 52.36299 -1.66793 37353 ft 472 kts 151°
2026-04-28 21:09 52.30333 -1.62358 37330 ft 469 kts 147°
2026-04-28 21:09 52.24463 -1.57744 37345 ft 469 kts 147°
2026-04-28 21:10 52.18573 -1.53157 37332 ft 468 kts 147°
2026-04-28 21:10 52.12720 -1.48626 37325 ft 471 kts 148°
2026-04-28 21:11 52.06801 -1.44069 37319 ft 468 kts 147°
2026-04-28 21:11 52.00931 -1.39564 37306 ft 470 kts 148°
2026-04-28 21:12 51.95047 -1.35065 37273 ft 470 kts 148°
2026-04-28 21:12 51.89092 -1.30526 37320 ft 473 kts 149°
2026-04-28 21:13 51.83202 -1.26054 37305 ft 468 kts 149°
2026-04-28 21:13 51.77322 -1.21597 37317 ft 472 kts 149°
2026-04-28 21:14 51.71397 -1.17124 37307 ft 469 kts 149°
2026-04-28 21:14 51.65481 -1.12667 37300 ft 472 kts 149°
2026-04-28 21:15 51.59523 -1.08194 37291 ft 470 kts 149°
2026-04-28 21:15 51.53599 -1.03758 37271 ft 471 kts 150°
2026-04-28 21:16 51.47661 -0.99326 37267 ft 469 kts 149°
2026-04-28 21:16 51.41778 -0.94947 37277 ft 469 kts 150°
2026-04-28 21:17 51.35871 -0.90562 37265 ft 469 kts 150°
2026-04-28 21:17 51.29926 -0.86161 37252 ft 470 kts 150°
2026-04-28 21:18 51.24035 -0.81814 37254 ft 471 kts 150°
2026-04-28 21:18 51.18080 -0.77431 37256 ft 469 kts 150°
2026-04-28 21:19 51.12178 -0.73100 37262 ft 471 kts 150°
2026-04-28 21:19 51.06210 -0.68733 37244 ft 471 kts 151°
2026-04-28 21:20 51.00273 -0.64401 37234 ft 471 kts 151°
2026-04-28 21:20 50.94341 -0.60084 37241 ft 470 kts 151°
2026-04-28 21:21 50.88415 -0.55784 37371 ft 470 kts 151°
2026-04-28 21:21 50.85443 -0.53633 37229 ft 469 kts 151°
2026-04-28 21:21 50.82509 -0.51512 37221 ft 465 kts 151°
2026-04-28 21:22 50.76598 -0.47246 37187 ft 469 kts 152°
2026-04-28 21:22 50.70700 -0.43003 37203 ft 467 kts 152°
2026-04-28 21:23 50.64822 -0.38784 37198 ft 468 kts 152°
2026-04-28 21:23 50.58914 -0.34557 37187 ft 467 kts 153°
2026-04-28 21:24 50.53001 -0.30337 37182 ft 468 kts 153°
2026-04-28 21:24 50.47102 -0.26139 37164 ft 468 kts 153°
2026-04-28 21:25 50.41175 -0.21934 37156 ft 467 kts 153°
2026-04-28 21:25 50.35280 -0.17761 37151 ft 469 kts 153°
2026-04-28 21:26 50.29355 -0.13580 37153 ft 467 kts 153°
2026-04-28 21:26 50.23433 -0.09412 37131 ft 468 kts 154°
2026-04-28 21:27 50.17547 -0.05280 37133 ft 468 kts 154°
2026-04-28 21:27 50.11592 -0.01121 37116 ft 469 kts 155°
2026-04-28 21:28 50.05361 0.01809 37115 ft 472 kts 164°
2026-04-28 21:28 49.99017 0.04323 37113 ft 471 kts 164°
2026-04-28 21:29 49.92713 0.06806 37109 ft 470 kts 164°
2026-04-28 21:29 49.86346 0.09305 37111 ft 470 kts 164°
2026-04-28 21:30 49.80032 0.11775 37110 ft 469 kts 164°
2026-04-28 21:30 49.73717 0.14239 37103 ft 468 kts 164°
2026-04-28 21:31 49.67417 0.16691 37101 ft 467 kts 164°
2026-04-28 21:31 49.61145 0.19220 37114 ft 467 kts 164°
2026-04-28 21:32 49.54900 0.21739 37103 ft 464 kts 164°
2026-04-28 21:32 49.48648 0.24252 37100 ft 465 kts 165°
2026-04-28 21:33 49.42404 0.26753 37113 ft 465 kts 164°
2026-04-28 21:33 49.36182 0.29237 37097 ft 464 kts 165°
2026-04-28 21:34 49.29946 0.31726 37100 ft 464 kts 165°
2026-04-28 21:34 49.23730 0.34352 37084 ft 464 kts 164°
2026-04-28 21:35 49.17541 0.36968 37082 ft 462 kts 164°
2026-04-28 21:35 49.11360 0.39569 37068 ft 463 kts 165°
2026-04-28 21:36 49.05156 0.42170 37067 ft 463 kts 165°
2026-04-28 21:36 48.98960 0.44759 37070 ft 463 kts 165°
2026-04-28 21:37 48.92766 0.47341 37070 ft 463 kts 165°
2026-04-28 21:37 48.86604 0.49902 37053 ft 462 kts 165°
2026-04-28 21:38 48.80397 0.52475 37065 ft 463 kts 165°
2026-04-28 21:38 48.74191 0.54964 37044 ft 460 kts 166°
2026-04-28 21:39 48.68006 0.57378 37043 ft 460 kts 166°
2026-04-28 21:39 48.61843 0.59784 37039 ft 461 kts 166°
2026-04-28 21:40 48.55634 0.62203 37031 ft 459 kts 166°
2026-04-28 21:40 48.49469 0.64630 37027 ft 459 kts 166°
2026-04-28 21:41 48.43330 0.67136 37007 ft 457 kts 167°
2026-04-28 21:41 48.37172 0.69640 37019 ft 461 kts 167°
2026-04-28 21:42 48.31004 0.72140 37006 ft 459 kts 167°
2026-04-28 21:42 48.24862 0.74622 37006 ft 460 kts 168°
2026-04-28 21:43 48.18700 0.77055 37003 ft 460 kts 168°
2026-04-28 21:43 48.12494 0.79492 37013 ft 461 kts 168°
2026-04-28 21:44 48.06298 0.81921 37000 ft 461 kts 168°
2026-04-28 21:44 48.00105 0.84342 36988 ft 462 kts 168°
2026-04-28 21:45 47.97013 0.85550 36817 ft 462 kts 168°
2026-04-28 21:45 47.93914 0.86759 36971 ft 461 kts 169°
2026-04-28 21:45 47.87684 0.89183 37006 ft 464 kts 169°
2026-04-28 21:46 47.81479 0.91593 36997 ft 462 kts 168°
2026-04-28 21:46 47.75267 0.93999 36995 ft 463 kts 169°
2026-04-28 21:47 47.69071 0.96394 36992 ft 462 kts 169°
2026-04-28 21:47 47.62859 0.98788 36973 ft 462 kts 169°
2026-04-28 21:48 47.56661 1.01171 36979 ft 462 kts 169°
2026-04-28 21:48 47.50441 1.03557 36990 ft 461 kts 169°
2026-04-28 21:49 47.44252 1.05844 36970 ft 458 kts 174°
2026-04-28 21:49 47.37956 1.06331 36975 ft 453 kts 184°
2026-04-28 21:50 47.31691 1.06185 36969 ft 452 kts 184°
2026-04-28 21:50 47.25407 1.06035 36970 ft 453 kts 184°
2026-04-28 21:51 47.19126 1.05888 36962 ft 451 kts 184°
2026-04-28 21:51 47.12851 1.05740 36962 ft 451 kts 185°
2026-04-28 21:52 47.06623 1.05595 36959 ft 450 kts 185°
2026-04-28 21:52 47.00408 1.05431 36951 ft 448 kts 185°
2026-04-28 21:53 46.94193 1.05156 36956 ft 448 kts 186°
2026-04-28 21:53 46.87938 1.04881 36946 ft 449 kts 186°
2026-04-28 21:54 46.81718 1.04612 36962 ft 450 kts 185°
2026-04-28 21:54 46.75488 1.04345 36972 ft 450 kts 185°
2026-04-28 21:55 46.69244 1.04080 36947 ft 449 kts 185°
2026-04-28 21:55 46.62996 1.03814 36923 ft 449 kts 185°
2026-04-28 21:56 46.56753 1.03550 36972 ft 450 kts 185°
2026-04-28 21:56 46.50526 1.03792 36971 ft 454 kts 175°
2026-04-28 21:57 46.44318 1.05760 36948 ft 458 kts 171°
2026-04-28 21:57 46.38161 1.07827 36942 ft 456 kts 172°
2026-04-28 21:58 46.31992 1.09887 36958 ft 458 kts 172°
2026-04-28 21:58 46.25811 1.11947 36955 ft 456 kts 172°
2026-04-28 21:59 46.19627 1.14000 36955 ft 457 kts 172°
2026-04-28 22:00 46.10331 1.17078 36947 ft 457 kts 172°
2026-04-28 22:00 46.04158 1.19115 36952 ft 459 kts 171°
2026-04-28 22:01 45.97940 1.21162 36958 ft 458 kts 172°
2026-04-28 22:01 45.91734 1.23201 36971 ft 459 kts 172°
2026-04-28 22:02 45.85508 1.25242 36983 ft 459 kts 172°
2026-04-28 22:02 45.79313 1.27267 36976 ft 459 kts 172°
2026-04-28 22:03 45.73061 1.29307 36973 ft 460 kts 172°
2026-04-28 22:03 45.66817 1.31339 36968 ft 461 kts 171°
2026-04-28 22:04 45.60587 1.33363 36968 ft 462 kts 171°
2026-04-28 22:04 45.54297 1.35401 36963 ft 461 kts 171°
2026-04-28 22:05 45.48041 1.37423 36956 ft 464 kts 171°
2026-04-28 22:05 45.41761 1.39449 36958 ft 462 kts 172°
2026-04-28 22:06 45.35477 1.41471 36959 ft 464 kts 171°
2026-04-28 22:06 45.29187 1.43491 36957 ft 463 kts 171°
2026-04-28 22:07 45.22870 1.45514 36959 ft 465 kts 171°
2026-04-28 22:07 45.16577 1.47525 36955 ft 466 kts 171°
2026-04-28 22:08 45.10280 1.49533 36955 ft 467 kts 171°
2026-04-28 22:08 45.03950 1.51548 36961 ft 465 kts 171°
2026-04-28 22:09 44.97662 1.53543 36962 ft 467 kts 171°
2026-04-28 22:09 44.91312 1.55555 36955 ft 467 kts 171°
2026-04-28 22:10 44.84980 1.57556 36962 ft 467 kts 171°
2026-04-28 22:10 44.78659 1.59549 36962 ft 466 kts 171°
2026-04-28 22:11 44.72336 1.61538 36960 ft 467 kts 171°
2026-04-28 22:11 44.66026 1.63519 36957 ft 466 kts 171°
2026-04-28 22:12 44.59710 1.65497 36946 ft 466 kts 172°
2026-04-28 22:12 44.53397 1.67470 36947 ft 465 kts 172°
2026-04-28 22:13 44.47072 1.69442 36949 ft 466 kts 172°
2026-04-28 22:13 44.40727 1.71416 36948 ft 467 kts 172°
2026-04-28 22:14 44.34414 1.73376 36942 ft 466 kts 172°
2026-04-28 22:14 44.28090 1.75313 36938 ft 465 kts 174°
2026-04-28 22:15 44.21714 1.76711 36946 ft 465 kts 175°
2026-04-28 22:15 44.15320 1.78082 36947 ft 464 kts 175°
2026-04-28 22:16 44.08954 1.79463 36946 ft 464 kts 175°
2026-04-28 22:16 44.02589 1.80852 36946 ft 464 kts 175°
2026-04-28 22:17 43.96246 1.82237 36940 ft 464 kts 176°
2026-04-28 22:17 43.89851 1.82981 36943 ft 462 kts 180°
2026-04-28 22:18 43.83440 1.83594 36949 ft 461 kts 180°
2026-04-28 22:18 43.77034 1.84210 36944 ft 462 kts 180°
2026-04-28 22:19 43.70657 1.84824 36945 ft 463 kts 180°
2026-04-28 22:19 43.64236 1.85443 36944 ft 461 kts 180°
2026-04-28 22:20 43.57814 1.86062 36941 ft 462 kts 180°
2026-04-28 22:20 43.51432 1.86675 36944 ft 462 kts 180°
2026-04-28 22:21 43.45009 1.87292 36941 ft 462 kts 180°
2026-04-28 22:21 43.38621 1.87904 36938 ft 462 kts 180°
2026-04-28 22:21 43.35436 1.88210 36479 ft 457 kts 180°
2026-04-28 22:22 43.32266 1.88512 35589 ft 463 kts 180°
2026-04-28 22:22 43.29082 1.88816 34837 ft 465 kts 180°
2026-04-28 22:22 43.25837 1.89126 33986 ft 469 kts 180°
2026-04-28 22:22 43.22582 1.89436 33097 ft 471 kts 180°
2026-04-28 22:23 43.19321 1.89747 32209 ft 473 kts 180°
2026-04-28 22:23 43.16044 1.90060 31314 ft 474 kts 179°
2026-04-28 22:23 43.12757 1.90373 30493 ft 474 kts 179°
2026-04-28 22:23 43.09530 1.90681 30027 ft 466 kts 179°
2026-04-28 22:24 43.06306 1.90989 29534 ft 459 kts 179°
2026-04-28 22:24 43.03173 1.91288 29008 ft 453 kts 179°
2026-04-28 22:24 43.00039 1.91586 28474 ft 448 kts 179°
2026-04-28 22:24 42.96938 1.91880 27941 ft 443 kts 179°
2026-04-28 22:25 42.93908 1.92167 27412 ft 438 kts 179°
2026-04-28 22:25 42.90873 1.92454 26884 ft 435 kts 179°
2026-04-28 22:25 42.87846 1.92738 26348 ft 445 kts 179°
2026-04-28 22:25 42.84745 1.93029 25790 ft 447 kts 179°
2026-04-28 22:26 42.81661 1.93320 25239 ft 443 kts 179°
2026-04-28 22:26 42.78626 1.93607 24683 ft 438 kts 179°
2026-04-28 22:26 42.75595 1.93893 24127 ft 433 kts 179°
2026-04-28 22:26 42.72640 1.94171 23583 ft 428 kts 179°
2026-04-28 22:27 42.69677 1.94449 23034 ft 424 kts 178°
2026-04-28 22:27 42.66743 1.94725 22483 ft 420 kts 178°
2026-04-28 22:27 42.63871 1.95224 21927 ft 417 kts 173°
2026-04-28 22:27 42.61012 1.95840 21362 ft 414 kts 173°
2026-04-28 22:28 42.58178 1.96444 20800 ft 411 kts 173°
2026-04-28 22:28 42.55366 1.97036 20232 ft 408 kts 173°
2026-04-28 22:28 42.52576 1.97614 19670 ft 404 kts 173°
2026-04-28 22:28 42.49830 1.98179 19112 ft 401 kts 173°
2026-04-28 22:29 42.47065 1.98744 18539 ft 399 kts 173°
2026-04-28 22:29 42.44367 1.99292 17981 ft 396 kts 173°
2026-04-28 22:29 42.41644 1.99843 17611 ft 387 kts 173°
2026-04-28 22:29 42.39046 2.00386 17506 ft 373 kts 170°
2026-04-28 22:30 42.36603 2.01403 17368 ft 362 kts 157°
2026-04-28 22:30 42.34429 2.02999 16998 ft 358 kts 150°
2026-04-28 22:30 42.32293 2.04774 16457 ft 359 kts 150°
2026-04-28 22:30 42.30194 2.06559 15946 ft 358 kts 149°
2026-04-28 22:31 42.28102 2.08357 15461 ft 357 kts 149°
2026-04-28 22:31 42.26022 2.10154 14989 ft 355 kts 149°
2026-04-28 22:31 42.23960 2.11939 14509 ft 353 kts 149°
2026-04-28 22:31 42.21903 2.13722 14026 ft 352 kts 149°
2026-04-28 22:32 42.19841 2.15509 13547 ft 350 kts 149°
2026-04-28 22:32 42.17807 2.17272 13081 ft 348 kts 149°
2026-04-28 22:32 42.15793 2.19017 12616 ft 346 kts 149°
2026-04-28 22:32 42.13768 2.20771 12141 ft 344 kts 149°
2026-04-28 22:33 42.11781 2.22490 11767 ft 338 kts 149°
2026-04-28 22:33 42.09821 2.24186 11728 ft 328 kts 149°
2026-04-28 22:33 42.07912 2.25835 11674 ft 328 kts 149°
2026-04-28 22:33 42.05993 2.27492 11573 ft 326 kts 149°
2026-04-28 22:34 42.04071 2.29150 11460 ft 326 kts 149°
2026-04-28 22:34 42.02179 2.30780 11353 ft 325 kts 149°
2026-04-28 22:34 42.00264 2.32431 11246 ft 324 kts 149°
2026-04-28 22:34 41.98376 2.34056 11142 ft 324 kts 149°
2026-04-28 22:35 41.96470 2.35696 11047 ft 324 kts 149°
2026-04-28 22:35 41.94587 2.37315 10926 ft 323 kts 149°
2026-04-28 22:35 41.92687 2.38947 10810 ft 322 kts 149°
2026-04-28 22:35 41.90804 2.40564 10706 ft 321 kts 148°
2026-04-28 22:36 41.88933 2.42169 10591 ft 320 kts 148°
2026-04-28 22:36 41.87059 2.43775 10494 ft 319 kts 148°
2026-04-28 22:36 41.85183 2.45382 10408 ft 319 kts 148°
2026-04-28 22:36 41.83337 2.46963 10288 ft 313 kts 148°
2026-04-28 22:37 41.81515 2.48522 10162 ft 301 kts 148°
2026-04-28 22:37 41.79794 2.49995 10071 ft 290 kts 148°
2026-04-28 22:37 41.78125 2.51421 9981 ft 278 kts 149°
2026-04-28 22:37 41.76527 2.52786 9892 ft 271 kts 148°
2026-04-28 22:38 41.74930 2.54151 9813 ft 270 kts 149°
2026-04-28 22:38 41.73357 2.55495 9698 ft 266 kts 149°
2026-04-28 22:38 41.71816 2.56810 9410 ft 264 kts 149°
2026-04-28 22:38 41.70302 2.58104 9371 ft 251 kts 149°
2026-04-28 22:39 41.68856 2.59337 9223 ft 244 kts 149°
2026-04-28 22:39 41.67449 2.60600 8912 ft 244 kts 147°
2026-04-28 22:39 41.66046 2.61891 8641 ft 242 kts 146°
2026-04-28 22:39 41.64671 2.63148 8258 ft 242 kts 146°
2026-04-28 22:40 41.63279 2.64410 7883 ft 240 kts 146°
2026-04-28 22:40 41.61899 2.65649 7518 ft 239 kts 147°
2026-04-28 22:40 41.60534 2.66864 7144 ft 238 kts 147°
2026-04-28 22:40 41.59148 2.68087 6776 ft 236 kts 147°
2026-04-28 22:41 41.57785 2.69252 6399 ft 235 kts 154°
2026-04-28 22:41 41.56206 2.69714 6024 ft 235 kts 185°
2026-04-28 22:41 41.54648 2.69121 5756 ft 234 kts 201°
2026-04-28 22:41 41.53183 2.68283 5721 ft 221 kts 202°
2026-04-28 22:42 41.51826 2.67410 5611 ft 214 kts 213°
2026-04-28 22:42 41.50692 2.66132 5341 ft 215 kts 224°
2026-04-28 22:42 41.49720 2.64603 5075 ft 216 kts 231°
2026-04-28 22:42 41.48877 2.62959 4811 ft 216 kts 236°
2026-04-28 22:43 41.48108 2.61220 4550 ft 216 kts 239°
2026-04-28 22:43 41.47412 2.59479 4299 ft 215 kts 241°
2026-04-28 22:43 41.46740 2.57685 4042 ft 215 kts 242°
2026-04-28 22:43 41.46099 2.55899 3786 ft 215 kts 243°
2026-04-28 22:44 41.45467 2.54090 3546 ft 214 kts 244°
2026-04-28 22:44 41.44855 2.52311 3310 ft 213 kts 244°
2026-04-28 22:44 41.44242 2.50515 3069 ft 212 kts 244°
2026-04-28 22:44 41.43636 2.48728 3000 ft 212 kts 244°
2026-04-28 22:45 41.43026 2.46922 2991 ft 213 kts 244°
2026-04-28 22:45 41.42419 2.45124 2990 ft 214 kts 244°
2026-04-28 22:45 41.41803 2.43301 2991 ft 214 kts 244°
2026-04-28 22:45 41.41194 2.41497 2993 ft 214 kts 244°
2026-04-28 22:46 41.40586 2.39703 2996 ft 214 kts 244°
2026-04-28 22:46 41.39973 2.37894 2996 ft 213 kts 244°
2026-04-28 22:46 41.39363 2.36098 2992 ft 214 kts 244°
2026-04-28 22:46 41.38758 2.34319 2990 ft 208 kts 244°
2026-04-28 22:47 41.38176 2.32601 2985 ft 198 kts 243°
2026-04-28 22:47 41.37631 2.30997 2987 ft 184 kts 243°
2026-04-28 22:47 41.37109 2.29470 2989 ft 175 kts 243°
2026-04-28 22:47 41.36623 2.28045 2847 ft 164 kts 243°
2026-04-28 22:48 41.36161 2.26693 2644 ft 160 kts 243°
2026-04-28 22:48 41.35699 2.25338 2435 ft 159 kts 243°
2026-04-28 22:48 41.35247 2.24014 2230 ft 159 kts 243°
2026-04-28 22:48 41.34791 2.22679 2024 ft 158 kts 243°
2026-04-28 22:49 41.34333 2.21339 1812 ft 159 kts 244°
2026-04-28 22:49 41.33879 2.20006 1599 ft 158 kts 243°
2026-04-28 22:49 41.33425 2.18683 1391 ft 159 kts 244°
2026-04-28 22:49 41.32968 2.17347 1176 ft 159 kts 243°
2026-04-28 22:50 41.32511 2.16014 961 ft 158 kts 244°
2026-04-28 22:50 41.32053 2.14672 752 ft 158 kts 244°
2026-04-28 22:50 41.31587 2.13348 523 ft 157 kts 244°
2026-04-28 22:50 41.31144 2.12038 310 ft 156 kts 245°
2026-04-28 22:51 41.30693 2.10711 116 ft 156 kts 244°
2026-04-28 22:51 41.30254 2.09447 20 ft 138 kts 245°
2026-04-28 22:51 41.29920 2.08468 27 ft 94 kts 245°
2026-04-28 22:51 41.29712 2.07862 27 ft 50 kts 245°
2026-04-28 22:52 41.29596 2.07525 23 ft 37 kts 246°
2026-04-28 22:52 41.29516 2.07287 23 ft 17 kts 246°
2026-04-28 22:52 41.29471 2.07186 22 ft 8 kts 201°
2026-04-28 22:52 41.29411 2.07202 22 ft 9 kts 159°
2026-04-28 22:53 41.29350 2.07240 21 ft 10 kts 153°
2026-04-28 22:53 41.29338 2.07315 20 ft 10 kts 67°
2026-04-28 22:53 41.29367 2.07403 20 ft 10 kts 65°
2026-04-28 22:53 41.29395 2.07484 21 ft 8 kts 68°
2026-04-28 22:54 41.29369 2.07539 20 ft 9 kts 159°
2026-04-28 22:54 41.29324 2.07566 19 ft 1 kts 142°
2026-04-28 22:54 41.29321 2.07576 19 ft 1 kts 99°
2026-04-28 22:54 41.29330 2.07596 19 ft 5 kts 52°
2026-04-28 22:55 41.29357 2.07644 20 ft 7 kts 52°
2026-04-28 22:55 41.29390 2.07707 21 ft 8 kts 61°
2026-04-28 22:55 41.29418 2.07778 22 ft 9 kts 62°
2026-04-28 22:55 41.29451 2.07865 22 ft 11 kts 65°
2026-04-28 22:56 41.29485 2.07975 23 ft 13 kts 67°
2026-04-28 22:56 41.29527 2.08098 23 ft 15 kts 66°
2026-04-28 22:56 41.29562 2.08212 24 ft 9 kts 79°
2026-04-28 22:56 41.29529 2.08283 23 ft 11 kts 159°
2026-04-28 22:57 41.29445 2.08332 22 ft 14 kts 155°
2026-04-28 22:57 41.29361 2.08383 22 ft 11 kts 155°
2026-04-28 22:57 41.29339 2.08388 21 ft 1 kts 211°
2026-04-28 22:57 41.29331 2.08380 22 ft 2 kts 213°
2026-04-28 22:58 41.29298 2.08357 22 ft 5 kts 204°
2026-04-28 22:58 41.29266 2.08338 21 ft 8 kts 204°
2026-04-28 22:58 41.29242 2.08324 21 ft 2 kts 203°
2026-04-28 22:58 41.29239 2.08322 21 ft 0 kts 203°